Location: Poprad
(49.0500°N, 20.3000°E)
Time: 19:10:31
(UTC+02:00)

RS-44 - Pass Details

Date: 28 April 2024
Orbit: 1174 x 1511 km, 82.5° (Epoch: 20 May)

Event Time Altitude Azimuth Distance (km) Brightness Sun altitude
Rises 22:47:13 0° 267° (W) 4,544 ? -22.0°
Reaches altitude 10° 22:53:36 10° 302° (WNW) 3,484 ? -22.5°
Maximum altitude 22:55:29 11° 316° (NW) 3,392 ? -22.6°
Drops below altitude 10° 22:57:21 10° 329° (NNW) 3,429 ? -22.8°
Sets 23:03:26 0° 5° (N) 4,306 ? -23.2°
